Zurück zum Katalog

FENGYUN 1C DEB

AktivPO
NORAD 30314·DEBRIS·🇨🇳 China

Gestartet May 10, 1999 von Taiyuan Satellite Launch Center

Loading…

Nächste Überflüge (nächste 24 Stunden)

TLE

AktuellSource: Space-Track

Epoche: Sep 14, 2026, 06:49 UTC

1 30314U 99025AAB 26257.28465219  .00000883  00000-0  55319-3 0  9990
2 30314  98.3990  71.3375 0141918 299.4663  59.2408 14.02116128999696

Verfolge FENGYUN 1C DEB in Echtzeit mit AllMySat

Download on the App Store